RH
97 100 97 98 87 100 100 100 100 100 97 84 82 66 17 12 10 8 7 7 6 7 7 7 7 8 8 8 9 9 9 8 8 8 9 10 10 10 10 10 11 11 12
100 99 95 95 96 100 89 96 100 100 100 99 95 68 21 13 12 10 9 8 8 7 7 7 8 9 10 10 10 10 10 9 9 10 11 11 10 10 11 11 12 12 13
99 100 98 93 92 89 99 100 97 99 99 100 98 77 27 15 13 12 10 9 8 9 8 8 9 9 10 11 11 11 11 11 11 12 12 12 11 12 14 13 14 14 14
99 100 100 100 99 98 94 96 100 99 100 100 100 92 42 18 16 14 12 11 11 10 10 9 9 10 11 11 11 12 12 13 13 14 13 14 14 14 15 15 15 16 17
99 100 100 98 99 98 97 99 100 91 98 100 99 100 71 30 20 17 15 13 12 13 12 12 12 12 12 12 12 13 13 14 14 14 15 16 16 16 15 15 17 19 20
50 60 96 99 100 100 99 98 97 100 100 99 100 100 95 50 30 23 19 17 14 13 13 13 13 13 13 13 14 14 15 15 16 14 16 16 16 17 19 20 17 19 19
34 37 40 40 58 91 100 100 100 99 97 98 100 100 99 99 64 40 28 26 21 19 17 16 16 15 15 15 16 15 16 16 16 17 16 17 17 19 20 20 21 19 20
29 29 30 33 38 40 47 71 92 99 100 99 99 100 100 100 99 85 54 49 41 33 30 28 24 22 19 18 17 16 16 16 16 17 18 16 18 19 22 21 24 25 23
33 35 33 32 33 42 43 35 37 41 60 98 100 100 100 100 99 100 96 59 57 44 38 34 33 33 30 27 25 23 21 20 19 19 19 20 20 20 20 22 24 25 24
33 34 37 39 40 39 42 44 44 45 45 45 48 44 47 75 97 100 100 99 99 100 69 43 43 43 42 38 36 34 33 33 32 30 29 27 26 25 24 24 25 26 26
36 37 35 36 37 37 39 42 48 50 49 48 45 45 46 47 45 43 68 97 99 98 93 100 92 63 98 93 86 85 76 66 59 57 48 44 44 39 35 34 34 33 32
50 52 52 53 49 44 42 42 44 40 38 38 44 49 51 52 53 51 49 48 50 47 52 68 92 98 97 100 100 100 98 79 99 80 98 100 95 74 67 59 54 47 42
52 55 57 56 58 58 55 53 50 48 46 48 50 50 52 55 56 56 56 55 53 52 50 50 51 53 76 78 86 97 97 93 100 99 99 96 97 99 99 100 99 94 65
52 55 57 58 56 56 58 60 59 58 59 58 57 59 60 59 58 60 60 59 56 54 53 52 52 50 47 44 45 62 81 52 94 69 96 98 72 77 98 84 97 97 99
59 60 60 63 63 60 57 56 58 61 63 63 63 64 66 66 65 63 62 62 61 58 54 49 47 47 46 48 50 49 46 44 45 56 52 62 52 84 98 95 98 98 99
61 65 70 74 73 72 70 68 66 64 62 62 62 62 61 61 62 64 67 67 67 66 64 61 57 49 45 39 36 36 40 45 45 39 36 36 44 73 66 100 97 98 100
81 82 79 75 72 68 65 61 57 52 46 39 32 29 32 40 50 53 56 55 54 56 60 64 67 65 60 52 48 49 44 37 32 34 47 48 39 42 100 78 100 99 98
76 71 65 59 52 47 41 36 32 24 19 14 12 11 11 12 11 10 9 9 11 16 22 50 58 58 62 66 64 61 58 56 47 41 36 37 53 51 60 79 100 93 99
62 56 51 47 44 41 38 36 35 33 30 27 24 21 18 16 14 13 11 10 8 7 7 14 34 46 50 53 63 65 67 66 64 59 49 47 42 38 48 86 100 97 100
59 54 50 48 47 47 48 48 46 42 35 22 16 16 17 17 17 16 15 13 12 9 7 6 5 6 6 15 45 51 64 64 64 67 66 58 50 44 42 38 41 68 82
58 57 58 58 58 57 55 52 46 39 27 14 8 6 6 6 6 8 9 12 12 11 12 11 8 6 5 5 7 16 31 51 58 60 58 63 64 54 45 46 59 97 97
70 71 70 67 63 53 40 28 19 15 13 10 7 6 6 7 8 8 8 8 8 10 11 11 15 15 11 8 7 10 16 27 36 44 46 50 60 54 44 45 52 100 100
79 78 77 75 62 43 31 24 17 13 10 9 8 8 7 8 8 7 7 8 9 14 14 17 22 36 33 24 17 18 16 18 25 28 35 49 52 46 56 52 68 100 99
82 81 80 78 73 68 58 29 21 18 15 13 12 10 10 10 10 9 7 7 12 22 25 27 42 64 66 52 39 32 33 28 30 39 49 62 63 59 86 91 96 93 93
82 77 69 59 50 48 46 44 41 37 31 18 14 13 13 12 12 10 9 9 19 44 38 37 56 78 82 84 87 67 52 43 40 57 100 100 90 78 100 100 100 98 100
83 77 75 74 68 63 58 41 30 24 18 16 15 14 13 12 11 10 9 14 24 44 45 55 82 92 93 95 100 98 92 99 100 100 100 99 98 86 92 97 99 90 97
Wind_Speed
16 8 16 17 28 29 38 36 31 27 30 31 31 30 29 28 28 28 29 30 30 30 30 29 30 29 29 29 29 30 29 29 28 27 26 26 25 25 24 23 22 22 22
23 11 13 12 18 6 20 34 23 20 22 26 29 28 28 28 27 28 29 29 30 30 31 30 30 30 30 31 31 31 30 31 30 28 29 28 27 27 26 25 24 24 25
22 19 15 16 10 8 7 22 10 7 8 21 24 26 27 28 28 28 28 29 31 32 32 32 32 32 32 32 31 32 32 32 31 31 30 30 31 29 28 26 26 27 27
33 31 22 15 10 5 11 2 19 3 1 6 21 27 28 28 27 28 28 30 32 33 33 34 34 34 34 34 34 35 35 35 34 35 32 34 32 30 30 29 29 30 30
24 25 22 20 21 23 21 6 2 4 7 5 12 23 28 28 30 30 31 33 34 34 35 36 36 36 36 35 36 37 37 37 37 35 33 35 34 33 34 33 32 33 31
25 23 15 13 9 11 13 13 13 4 7 9 11 15 28 28 29 30 32 34 35 35 35 35 36 36 37 37 37 37 38 37 38 38 37 38 36 35 36 36 39 34 36
17 15 13 11 14 12 7 3 3 6 7 4 9 14 18 23 27 29 31 32 33 34 35 36 37 37 38 38 38 39 39 38 39 38 39 38 37 36 39 38 40 40 40
14 13 13 12 9 10 9 4 10 3 5 5 3 7 13 12 27 34 29 29 30 32 33 34 36 37 37 38 39 40 41 40 41 40 40 39 39 38 40 40 39 44 44
17 14 11 9 7 5 5 6 10 10 14 9 10 10 13 17 23 18 37 25 28 29 32 33 34 34 36 37 38 40 40 40 41 41 41 42 41 42 42 43 43 45 46
16 15 15 14 12 9 7 8 10 11 11 10 14 15 19 20 18 19 24 37 31 24 29 34 33 34 36 37 38 39 39 40 40 41 42 43 44 44 45 45 45 47 46
15 14 13 12 12 12 12 12 13 14 16 16 18 21 21 21 22 23 27 28 29 46 41 30 32 37 36 37 36 35 39 40 42 42 43 44 46 46 47 47 46 47 47
16 14 13 12 12 13 14 15 15 16 17 18 20 21 22 24 24 24 26 27 26 28 30 33 34 41 41 35 35 43 42 43 39 54 40 43 50 51 50 51 52 48 50
20 20 20 20 19 18 17 18 19 19 20 21 22 23 24 25 25 24 24 24 25 26 28 30 32 34 34 44 38 44 41 55 55 44 46 45 46 45 45 50 57 55 53
21 22 23 25 25 25 25 25 25 25 26 26 27 28 28 29 31 30 30 29 28 27 28 29 30 31 34 38 40 41 47 47 51 43 39 46 47 40 38 40 39 37 49
23 23 24 26 27 29 31 33 33 33 33 35 36 36 37 37 38 38 39 39 38 37 35 32 32 31 32 32 33 37 43 46 48 48 49 48 46 44 44 40 33 28 31
27 27 29 29 30 32 34 36 38 40 41 43 44 45 46 47 47 48 49 49 49 48 47 44 42 38 35 32 31 33 35 38 41 42 44 44 44 42 42 43 40 37 33
28 31 33 34 35 37 39 40 43 46 49 52 54 56 57 57 58 58 59 59 59 60 59 57 54 51 47 42 38 37 37 34 33 35 38 40 42 44 44 40 39 39 37
33 36 38 40 42 41 40 40 42 41 40 41 44 46 47 47 47 47 50 53 57 62 64 65 64 62 60 55 51 48 47 45 39 35 31 32 35 36 40 40 46 46 43
42 44 46 44 41 39 38 37 34 32 31 29 30 31 35 38 40 41 43 45 47 48 52 59 68 69 67 63 62 59 57 56 51 46 40 35 32 27 29 39 46 45 44
40 40 39 39 39 37 36 33 31 30 29 29 28 28 28 31 33 36 38 40 43 49 52 53 54 58 64 68 69 63 64 64 61 56 50 45 39 34 33 32 34 39 40
37 37 35 34 35 34 34 33 33 33 32 33 33 32 32 31 31 32 35 38 44 48 50 50 57 59 58 59 59 63 66 67 66 62 58 54 46 43 40 38 35 31 37
33 33 32 32 32 33 33 33 34 34 34 34 35 35 35 35 35 36 36 37 41 44 46 53 52 54 59 60 57 55 58 61 63 64 59 54 49 47 45 42 38 37 38
28 29 30 31 32 33 35 35 35 35 35 35 35 36 36 36 38 39 40 41 41 44 47 49 51 50 48 51 51 51 50 54 58 62 60 55 49 47 47 44 40 43 44
30 30 30 31 32 33 35 36 36 36 36 37 37 37 37 38 39 41 42 43 43 44 47 51 48 46 43 42 40 41 42 45 49 52 54 52 48 47 46 46 47 45 44
31 31 32 32 33 34 35 36 36 36 37 38 39 39 39 40 41 43 44 44 42 43 47 50 48 45 41 37 32 31 36 39 41 43 45 45 46 44 43 48 48 47 46
31 32 33 34 34 35 35 37 37 37 38 38 39 39 41 42 43 45 45 42 41 40 42 44 41 42 41 36 26 27 30 31 32 38 41 40 41 39 41 46 48 47 48
Wind_Direction
176 188 214 209 229 211 222 213 199 195 208 212 219 220 221 219 219 219 218 218 219 221 223 224 225 224 224 225 226 227 229 233 235 237 240 242 244 244 245 249 252 257 263
145 135 185 222 232 276 209 208 213 196 207 215 220 221 220 221 220 220 221 221 223 225 227 228 229 230 229 229 230 232 232 234 236 239 241 243 245 246 249 251 254 258 262
107 97 99 88 88 68 195 196 130 111 178 214 219 225 226 224 222 222 225 227 226 226 228 229 230 233 233 233 233 235 237 239 239 241 242 245 246 246 249 253 256 259 260
95 87 87 91 95 102 95 126 227 195 221 221 219 221 223 225 226 225 224 227 229 229 229 231 232 233 235 234 234 235 237 239 239 241 241 246 250 251 251 251 255 258 261
58 82 83 79 74 66 62 76 110 235 227 321 242 237 226 226 225 225 225 228 230 231 231 231 233 235 236 237 238 240 241 243 245 245 245 247 248 250 255 254 253 256 259
47 56 65 78 67 84 83 68 57 161 174 250 270 250 238 228 226 228 228 231 233 235 236 239 240 239 239 239 241 242 244 246 247 248 246 249 251 253 255 257 261 259 260
47 44 57 49 34 55 52 35 50 61 30 21 245 257 278 254 228 233 231 234 236 238 239 239 240 241 243 243 244 245 246 248 250 252 253 253 254 255 257 257 263 266 267
27 32 32 33 21 35 35 344 317 53 227 243 205 270 286 309 262 236 238 238 240 242 242 244 246 245 245 246 247 249 250 251 252 252 255 255 255 255 257 260 259 264 265
5 2 6 9 12 357 347 329 318 326 323 331 262 258 268 280 276 290 239 239 252 247 246 246 246 249 249 250 251 251 253 254 255 256 256 256 256 256 257 260 260 265 267
349 348 347 352 354 347 333 318 304 306 308 293 290 294 294 294 287 301 278 248 225 246 255 252 253 254 254 254 254 255 255 257 258 260 259 260 260 260 259 259 260 261 265
323 323 319 315 319 326 330 325 316 309 306 302 297 296 294 291 289 293 289 274 273 246 232 243 251 248 251 257 261 263 260 262 263 260 262 264 263 263 262 262 261 263 263
310 306 301 296 299 304 307 309 310 314 316 315 311 309 305 303 297 290 289 289 285 282 278 281 269 248 240 245 252 260 258 261 259 262 266 261 259 259 262 264 264 262 260
306 304 301 300 299 297 295 295 295 295 296 298 298 298 298 296 294 293 287 283 281 277 274 271 266 261 260 260 272 260 257 260 269 270 256 267 263 261 265 267 266 259 258
287 292 293 292 291 290 290 291 290 288 287 285 286 286 284 284 285 284 283 282 278 275 273 272 271 268 263 262 260 256 256 261 258 268 266 272 271 274 275 274 274 270 267
287 286 285 286 285 283 283 284 285 284 282 281 281 279 278 278 277 276 276 277 277 275 272 270 270 269 269 268 265 263 261 262 260 259 259 258 263 258 263 266 253 251 257
288 289 291 289 285 283 284 284 285 285 285 284 283 281 279 275 273 273 274 274 272 271 271 270 270 267 266 265 264 266 263 262 263 263 262 262 260 257 260 263 257 260 258
295 296 297 295 293 291 289 289 289 290 290 290 289 287 284 280 277 275 272 270 271 271 270 268 267 266 265 263 263 264 267 265 266 265 264 263 261 259 251 255 257 257 262
304 305 305 306 306 305 303 303 302 299 295 291 289 288 287 287 287 283 279 275 271 268 265 266 266 266 264 263 262 263 265 266 266 266 269 267 264 261 254 252 252 256 259
305 306 306 306 306 306 306 306 305 302 297 292 288 287 288 290 291 290 288 286 282 278 273 268 263 263 263 263 261 260 261 262 264 264 265 267 268 269 263 256 252 258 253
300 301 301 301 302 304 305 304 302 299 296 295 294 293 292 296 300 304 306 303 296 286 279 274 270 267 264 261 259 259 260 260 262 264 265 264 267 268 269 269 270 258 253
300 301 301 301 302 303 302 303 302 300 299 299 298 298 298 298 296 295 297 301 303 304 301 286 275 269 267 265 261 256 255 257 260 261 261 261 263 266 266 265 266 264 259
298 299 301 302 302 302 302 303 303 303 301 300 299 298 299 302 303 304 304 304 305 305 307 299 290 276 270 265 263 258 254 251 253 256 257 258 257 258 254 256 257 252 256
298 299 300 301 301 302 304 305 305 305 304 303 303 302 301 303 306 307 308 310 310 310 310 310 295 287 276 270 264 260 255 252 251 252 253 252 249 249 252 251 249 245 252
303 302 302 301 302 302 302 303 304 305 304 304 304 303 303 303 305 307 309 310 312 313 314 312 302 292 284 274 264 259 255 251 249 249 252 252 250 246 248 246 247 247 253
303 303 303 304 304 304 303 304 305 306 305 304 304 304 305 305 305 305 308 309 313 315 315 311 304 295 288 278 268 258 253 250 247 246 250 253 250 247 243 245 248 253 252
302 302 303 304 305 306 306 305 304 304 302 302 303 305 306 306 306 305 305 308 311 313 314 308 298 290 286 278 264 260 248 241 240 239 241 244 255 249 245 250 251 256 253